| Date | Time | Temp. (oF) | Dew Point (oF) | Rel. Hum. (%) | Press. (in.) | Wind Dir. | Wind Speed (mph) | Hourly Rainfall (in.) |
|
|---|---|---|---|---|---|---|---|---|---|
| 1 | 12/20 | 00:00 | 28 | 23 | 84 | 29.84 | SW | 1 | 0.00 |
| 2 | 12/19 | 23:00 | 28 | 23 | 83 | 29.85 | W | 4 | 0.00 |
| 3 | 12/19 | 22:00 | 28 | 22 | 81 | 29.84 | SW | 2 | 0.00 |
| 4 | 12/19 | 21:00 | 29 | 23 | 79 | 29.83 | WSW | 3 | 0.00 |
| 5 | 12/19 | 20:00 | 29 | 22 | 76 | 29.82 | WSW | 3 | 0.00 |
| 6 | 12/19 | 19:00 | 30 | 23 | 77 | 29.81 | WSW | 3 | 0.00 |
| 7 | 12/19 | 18:00 | 29 | 23 | 81 | 29.80 | WSW | 3 | 0.00 |
| 8 | 12/19 | 17:00 | 30 | 23 | 77 | 29.79 | WNW | 4 | 0.00 |
| 9 | 12/19 | 16:00 | 32 | 23 | 71 | 29.77 | WNW | 8 | 0.00 |
| 10 | 12/19 | 15:00 | 32 | 23 | 72 | 29.76 | WNW | 9 | 0.00 |
| 11 | 12/19 | 14:00 | 32 | 24 | 75 | 29.76 | NW | 5 | 0.00 |
| 12 | 12/19 | 13:00 | 31 | 26 | 82 | 29.76 | WSW | 4 | 0.00 |
| 13 | 12/19 | 12:00 | 31 | 25 | 80 | 29.78 | W | 3 | 0.00 |
| 14 | 12/19 | 11:00 | 29 | 24 | 82 | 29.82 | W | 7 | 0.00 |
| 15 | 12/19 | 10:00 | 28 | 23 | 83 | 29.84 | SSW | 2 | 0.00 |
| 16 | 12/19 | 09:00 | 27 | 22 | 84 | 29.83 | WSW | 3 | 0.00 |
| 17 | 12/19 | 08:00 | 26 | 21 | 84 | 29.80 | WNW | 2 | 0.00 |
| 18 | 12/19 | 07:00 | 25 | 21 | 86 | 29.79 | WNW | 5 | 0.00 |
| 19 | 12/19 | 06:00 | 24 | 20 | 86 | 29.78 | WSW | 3 | 0.00 |
| 20 | 12/19 | 05:00 | 23 | 19 | 85 | 29.77 | W | 2 | 0.00 |
| 21 | 12/19 | 04:00 | 24 | 19 | 82 | 29.77 | SW | 1 | 0.00 |
| 22 | 12/19 | 03:00 | 25 | 19 | 81 | 29.78 | WSW | 4 | 0.00 |
| 23 | 12/19 | 02:00 | 25 | 19 | 79 | 29.78 | WSW | 2 | 0.00 |
| 24 | 12/19 | 01:00 | 26 | 19 | 77 | 29.78 | WSW | 4 | 0.00 |